Weather History for Thedford, NE

Change the Weather History Date:

Monday, November 26, 2012

  Actual Average (KLBF) Record (KLBF)
Temperature  
Mean Temperature 22 °F 30 °F  
Max Temperature 30 °F 45 °F 73 °F (1960)
Min Temperature 13 °F 16 °F -12 °F (1887)
Degree Days  
Heating Degree Days 44 35  
Month to date heating degree days 741  
Since 1 July heating degree days 1410  
Cooling Degree Days 0 0  
Month to date cooling degree days 0  
Year to date cooling degree days 768  
Moisture  
Dew Point 21 °F    
Average Humidity 88    
Maximum Humidity 94    
Minimum Humidity 77    
Precipitation  
Precipitation 0.05 in 0.02 in 0.64 in (1919)
Month to date precipitation 0.58  
Year to date precipitation 19.76  
Snow  
Snow 0.00 in 0.10 in 7.20 in (1919)
Month to date snowfall 3.3  
Since 1 July snowfall 5.6  
Since 1 September snowfall 5.6  
Snow Depth -    
Sea Level Pressure  
Sea Level Pressure 30.30 in    
Wind  
Wind Speed 7 mph (NNE)    
Max Wind Speed 13 mph    
Max Gust Speed 17 mph    
Visibility 6 miles    
Events Snow    
T = Trace of Precipitation, MM = Missing Value Source: NWS Daily Summary

Daily Weather History Graph

Daily Weather History Graph

Search for Another Location

Airport:

Trip Planner

Search our weather history database for the weather conditions in past years. The results will help you decide how hot, cold, wet, or windy it might be!

Date:

Astronomy

Nov. 26, 2012 Rise Set
Actual Time 7:45 AM CST 5:13 PM CST
Civil Twilight 7:14 AM CST 5:44 PM CST
Nautical Twilight 6:40 AM CST 6:18 PM CST
Astronomical Twilight 6:06 AM CST 6:52 PM CST
Moon 4:07 PM CST (11/26) 5:56 AM CST (11/26)
Length of Visible Light 10h 29m
Length of Day
9h 27m
Waxing Gibbous, 97% of the Moon is Illuminated
Nov 26
Waxing Gibbous
Nov 28
Full
Dec 6
Last Quarter
Dec 13
New
Dec 19
First Quarter

Hourly Weather History & Observations

Time (CST) Temp. Windchill Dew Point Humidity Pressure Visibility Wind Dir Wind Speed Gust Speed Precip Events Conditions
12:15 AM 30.9 °F 21.7 °F 29.3 °F 94% 30.13 in 3.0 mi NE 11.5 mph - N/A Snow Light Snow
12:35 AM 30.6 °F 22.4 °F 28.8 °F 93% 30.13 in 3.0 mi ENE 9.2 mph - N/A Snow Light Snow
12:55 AM 30.4 °F 22.2 °F 28.6 °F 93% 30.14 in 3.0 mi NE 9.2 mph - N/A Snow Light Snow
1:15 AM 30.2 °F 22.6 °F 28.4 °F 93% 30.14 in 4.0 mi NE 8.1 mph - N/A Snow Light Snow
1:35 AM 30.0 °F 21.1 °F 28.4 °F 94% 30.14 in 5.0 mi NE 10.4 mph 16.1 mph N/A Snow Light Snow
1:55 AM 29.8 °F 20.9 °F 28.0 °F 93% 30.16 in 5.0 mi NE 10.4 mph - N/A Snow Light Snow
2:15 AM 29.8 °F 19.8 °F 28.0 °F 93% 30.16 in 3.0 mi NNE 12.7 mph 17.3 mph N/A Snow Light Snow
2:35 AM 29.1 °F 20.0 °F 26.6 °F 90% 30.17 in 4.0 mi NE 10.4 mph - N/A Snow Light Snow
2:55 AM 29.1 °F 22.1 °F 27.1 °F 92% 30.19 in 5.0 mi NE 6.9 mph - N/A Snow Light Snow
3:15 AM 29.1 °F 22.1 °F 27.3 °F 93% 30.20 in 3.0 mi NE 6.9 mph - N/A Snow Light Snow
3:35 AM 29.1 °F 23.0 °F 27.3 °F 93% 30.20 in 2.0 mi NE 5.8 mph - 0.01 in Snow Light Snow
3:55 AM 28.4 °F 19.7 °F 26.6 °F 93% 30.21 in 1.2 mi NE 9.2 mph - 0.02 in Snow Light Snow
4:15 AM 28.2 °F 22.0 °F 26.6 °F 94% 30.21 in 1.2 mi NE 5.8 mph - N/A Snow Light Snow
4:35 AM 28.2 °F 23.1 °F 26.6 °F 94% 30.21 in 1.8 mi NE 4.6 mph - 0.01 in Snow Light Snow
4:55 AM 28.0 °F 22.8 °F 26.4 °F 94% 30.22 in 2.5 mi NE 4.6 mph - 0.01 in Snow Light Snow
5:15 AM 27.9 °F 19.1 °F 26.1 °F 93% 30.23 in 2.5 mi NE 9.2 mph - 0.01 in Snow Light Snow
5:35 AM 27.3 °F 20.9 °F 25.5 °F 93% 30.24 in 1.0 mi NE 5.8 mph - 0.01 in Snow Snow
5:55 AM 26.6 °F 20.0 °F 24.8 °F 93% 30.25 in 2.0 mi NE 5.8 mph - 0.01 in Snow Light Snow
6:15 AM 26.6 °F 19.1 °F 24.6 °F 92% 30.25 in 2.0 mi NE 6.9 mph - N/A Snow Light Snow
6:35 AM 26.4 °F 17.3 °F 24.4 °F 92% 30.26 in 1.8 mi NE 9.2 mph - N/A Snow Light Snow
6:55 AM 26.1 °F 17.6 °F 23.9 °F 92% 30.28 in 3.0 mi NNE 8.1 mph - N/A Snow Light Snow
7:15 AM 24.4 °F 14.2 °F 21.9 °F 90% 30.30 in 2.0 mi NNE 10.4 mph - N/A Snow Light Snow
7:35 AM 23.7 °F 15.6 °F 21.2 °F 90% 30.32 in 2.0 mi NNE 6.9 mph - N/A Snow Light Snow
7:55 AM 23.7 °F 17.8 °F 21.4 °F 91% 30.33 in 0.5 mi North 4.6 mph - 0.01 in Snow Snow
8:15 AM 23.4 °F 15.2 °F 20.8 °F 90% 30.34 in 1.0 mi NNE 6.9 mph - N/A Snow Light Snow
8:35 AM 23.0 °F 15.8 °F 20.7 °F 91% 30.36 in 1.2 mi North 5.8 mph - N/A Snow Light Snow
8:55 AM 23.0 °F 15.8 °F 20.3 °F 89% 30.37 in 1.0 mi North 5.8 mph - N/A Snow Light Snow
9:15 AM 23.0 °F 15.8 °F 20.1 °F 89% 30.37 in 1.2 mi NNE 5.8 mph - N/A Snow Light Snow
9:35 AM 23.0 °F 13.9 °F 19.9 °F 88% 30.38 in 1.8 mi NNE 8.1 mph - N/A Snow Light Snow
9:55 AM 22.6 °F 18.0 °F 19.0 °F 86% 30.39 in 4.0 mi North 3.5 mph - N/A Snow Light Snow
10:15 AM 22.8 °F - 19.0 °F 85% 30.40 in 7.0 mi Calm Calm - N/A   Mostly Cloudy
10:35 AM 23.0 °F 14.7 °F 18.3 °F 82% 30.40 in 10.0 mi North 6.9 mph - N/A   Scattered Clouds
10:55 AM 23.5 °F 16.4 °F 18.5 °F 81% 30.41 in 10.0 mi North 5.8 mph - N/A   Scattered Clouds
11:15 AM 23.9 °F 18.0 °F 18.9 °F 81% 30.41 in 10.0 mi North 4.6 mph - N/A   Mostly Cloudy
11:35 AM 24.1 °F 18.2 °F 19.2 °F 82% 30.40 in 10.0 mi North 4.6 mph - N/A   Overcast
11:55 AM 23.7 °F 16.6 °F 19.0 °F 82% 30.40 in 10.0 mi NNW 5.8 mph - N/A   Overcast
12:15 PM 23.7 °F - 19.4 °F 84% 30.40 in 10.0 mi Calm Calm - N/A   Overcast
12:35 PM 24.8 °F 17.9 °F 19.6 °F 81% 30.39 in 10.0 mi NW 5.8 mph - N/A   Overcast
12:55 PM 24.8 °F 19.1 °F 19.2 °F 79% 30.39 in 10.0 mi NNW 4.6 mph - N/A   Mostly Cloudy
1:15 PM 24.8 °F 19.1 °F 19.2 °F 79% 30.38 in 10.0 mi NNW 4.6 mph - N/A   Scattered Clouds
1:35 PM 25.0 °F - 19.4 °F 79% 30.38 in 10.0 mi Calm Calm - N/A   Clear
1:55 PM 25.5 °F - 19.6 °F 78% 30.38 in 10.0 mi Calm Calm - N/A   Clear
2:15 PM 26.2 °F - 20.1 °F 78% 30.37 in 10.0 mi Calm Calm - N/A   Scattered Clouds
2:35 PM 26.4 °F 22.4 °F 20.1 °F 77% 30.37 in 10.0 mi SSW 3.5 mph - N/A   Clear
2:55 PM 26.6 °F 21.2 °F 20.3 °F 77% 30.36 in 10.0 mi SSW 4.6 mph - N/A   Clear
3:15 PM 26.6 °F 22.6 °F 20.3 °F 77% 30.35 in 10.0 mi WSW 3.5 mph - N/A   Clear
3:35 PM 26.8 °F 22.8 °F 20.5 °F 77% 30.35 in 10.0 mi SW 3.5 mph - N/A   Clear
3:55 PM 27.1 °F - 20.8 °F 77% 30.35 in 10.0 mi Calm Calm - N/A   Clear
4:15 PM 26.6 °F - 20.7 °F 78% 30.35 in 10.0 mi Calm Calm - N/A   Clear
4:35 PM 26.4 °F - 21.0 °F 80% 30.35 in 10.0 mi Calm Calm - N/A   Clear
4:55 PM 24.3 °F - 19.8 °F 83% 30.34 in 10.0 mi Calm Calm - N/A   Clear
5:15 PM 22.1 °F - 19.2 °F 89% 30.35 in 10.0 mi Calm Calm - N/A   Clear
5:35 PM 22.1 °F - 19.6 °F 90% 30.34 in 10.0 mi Calm Calm - N/A   Clear
5:55 PM 18.9 °F - 16.7 °F 91% 30.34 in 10.0 mi Calm Calm - N/A   Clear
6:15 PM 17.4 °F - 15.1 °F 91% 30.34 in 10.0 mi Calm Calm - N/A   Clear
6:35 PM 17.6 °F - 15.6 °F 92% 30.34 in 10.0 mi Calm Calm - N/A   Clear
6:55 PM 15.6 °F - 13.6 °F 92% 30.33 in 10.0 mi Calm Calm - N/A   Clear
7:15 PM 17.2 °F 11.9 °F 15.3 °F 92% 30.33 in 7.0 mi SE 3.5 mph - N/A   Clear
7:35 PM 14.0 °F - 11.5 °F 90% 30.33 in 7.0 mi Calm Calm - N/A   Clear
7:55 PM 14.4 °F - 12.0 °F 90% 30.33 in 7.0 mi Calm Calm - N/A   Clear
8:15 PM 13.8 °F - 11.5 °F 90% 30.33 in 7.0 mi Calm Calm - N/A   Clear
8:35 PM 14.4 °F - 12.0 °F 90% 30.33 in 2.5 mi Calm Calm - N/A   Clear
8:55 PM 17.2 °F 10.2 °F 15.3 °F 92% 30.32 in 10.0 mi South 4.6 mph - N/A   Clear
9:15 PM 20.5 °F 10.8 °F 18.5 °F 92% 30.32 in 10.0 mi SSW 8.1 mph - N/A   Clear
9:35 PM 20.3 °F 11.5 °F 18.1 °F 91% 30.31 in 10.0 mi SSW 6.9 mph - N/A   Clear
9:55 PM 20.7 °F 13.0 °F 18.5 °F 91% 30.31 in 10.0 mi SW 5.8 mph - N/A   Clear
10:15 PM 21.9 °F 12.5 °F 19.9 °F 92% 30.31 in 10.0 mi SSW 8.1 mph - N/A   Clear
10:35 PM 21.9 °F 12.5 °F 19.8 °F 91% 30.31 in 10.0 mi SSW 8.1 mph - N/A   Clear
10:55 PM 21.9 °F 14.5 °F 19.4 °F 90% 30.30 in 10.0 mi SSW 5.8 mph - N/A   Clear
11:15 PM 22.3 °F 14.9 °F 19.6 °F 89% 30.29 in 10.0 mi SSW 5.8 mph - N/A   Clear
11:35 PM 24.1 °F 16.0 °F 21.0 °F 88% 30.29 in 10.0 mi SSW 6.9 mph - N/A   Clear
11:55 PM 25.2 °F 17.3 °F 21.6 °F 86% 30.28 in 10.0 mi SSW 6.9 mph - N/A   Clear